Weather in Muzaffarnagar

India     29°28′13″N   77°42′27″E
temp.,
°C
wind,
m/s
gust,
m/s
humid.,
%
clouds,
%
prec.,
mm/h
press.,
hPa
HPBL,
m
23 april, fri
fri2323:30+24ene5113911 0.0 1011259
02:30+21ne37505 0.0 1010192
05:30+19ne365193 0.0 1010114
08:30+26e243498 0.5 1011418
11:30+30ene342591 1.0 10101338
14:30+32ne35225 0.5 10092125
17:30+30nne88270 0.6 1006777
20:30+23nne594718 0.3 1008238
24 april, sat
sat2423:30+21nnw34560 0.6 100978
02:30+20n47580 0.0 1008139
05:30+20nnw35550 0.0 1009110
08:30+26nnw33340 0.0 1010451
11:30+32nw33230 0.0 10102210
14:30+35nw33140 0.0 10073115
17:30+34nw54120 0.0 10052879
20:30+28wnw36190 0.0 100888
25 april, sun
sun2523:30+26nw36250 0.0 1009113
02:30+23nnw33350 0.0 100847
05:30+22nnw34370 0.0 100859
08:30+29nnw46200 0.0 1009460
11:30+37nw43120 0.0 10082474
14:30+39nw5480 0.0 10053544
17:30+38nw5670 0.0 10042747
20:30+30nw33110 0.0 100631
26 april, mon
mon2623:30+27nw34150 0.0 100755
02:30+25nw36190 0.0 100587
05:30+23nw34220 0.0 100659
08:30+31nnw35150 0.0 1007421
11:30+39nw5670 0.0 10062153
14:30+41nnw5650 0.0 10033818
17:30+40nw6760 0.0 10023824
20:30+32nnw35100 0.0 100471
27 april, tue
tue2723:30+29w33130 0.0 100531
02:30+27wnw33140 0.0 100438
05:30+26nnw33160 0.0 100538
08:30+34nnw33110 0.0 1006355
11:30+41wnw4560 0.0 10053816
14:30+43nw5550 0.0 10024849
17:30+41nw5660 0.0 10014268
20:30+33nw3390 0.0 100333